RH
6 6 7 7 7 7 6 6 6 7 7 8 7 6 4 3 3 3 3 4 4 4 4 5 5 5 5 5 4 3 3 3 2 3 5 8 10 14 19 22 26 33 37 35 39 45 47 53 57 55 52 52 53 51 48 50 51 49 45 40 35 29 33 46 57 64 71 73 71 68 67 74 72 58 49 48 51 50 42 36 31 31 29 30 31 20 10 7
4 4 5 6 7 8 7 7 7 7 7 8 8 8 7 6 4 3 3 3 3 4 4 4 4 5 5 5 5 4 3 3 3 2 3 4 6 9 13 18 23 28 34 38 41 43 43 44 44 44 45 47 51 49 47 49 47 47 46 41 35 31 37 50 58 64 69 70 68 66 66 73 75 67 57 46 45 46 40 36 34 31 28 29 28 17 10 7
3 3 3 4 6 7 7 8 8 8 8 8 9 9 9 9 7 5 3 3 3 3 4 4 4 4 5 5 5 5 4 4 3 3 2 3 3 5 8 14 20 24 30 36 38 36 36 37 35 35 39 44 50 51 50 48 46 47 45 42 37 30 37 53 64 66 67 68 66 64 64 68 70 69 63 51 47 48 44 40 37 34 30 29 26 16 10 7
3 3 3 3 4 5 6 7 8 8 8 9 9 9 10 10 10 9 6 4 3 3 3 3 4 4 4 5 5 5 5 5 4 3 3 3 3 3 5 9 15 20 26 33 38 38 41 49 47 43 45 48 54 56 53 48 46 49 46 41 38 31 34 50 65 70 66 63 64 63 62 63 64 64 61 55 53 51 44 40 40 38 34 31 27 17 10 7
3 3 3 3 3 3 4 5 6 7 8 9 10 10 11 11 12 11 10 7 5 3 3 3 3 4 4 4 4 5 5 5 5 4 4 3 3 3 3 6 11 16 22 31 41 46 55 64 59 54 57 59 60 60 57 51 46 45 45 42 38 32 32 46 67 77 72 66 64 64 63 61 62 60 57 55 53 49 43 40 39 37 33 32 29 21 12 7
4 3 3 3 3 3 3 3 4 5 7 9 11 12 11 12 12 13 12 10 8 5 3 3 4 4 4 4 4 4 5 5 5 5 5 4 3 3 3 4 7 13 19 29 41 49 59 67 66 62 66 71 67 63 59 53 46 43 43 40 38 35 32 45 70 82 80 73 67 68 64 58 62 64 61 60 54 49 45 39 38 35 28 28 32 26 15 9
4 3 3 3 3 3 3 2 3 4 5 7 10 12 13 13 13 13 14 13 12 9 6 4 4 4 4 4 4 4 4 5 5 5 5 4 4 3 3 3 4 9 16 26 39 48 56 65 70 66 70 77 67 60 61 54 47 44 40 39 42 42 36 41 61 76 79 75 70 71 67 59 64 68 67 66 59 50 42 35 36 35 26 26 33 29 20 11
4 4 3 3 3 3 3 2 2 3 4 5 8 12 14 15 14 14 14 16 15 12 9 6 5 5 4 5 5 5 4 4 5 5 5 5 5 4 3 3 3 6 12 21 33 43 51 60 64 60 66 76 61 53 59 53 45 39 36 42 47 47 43 39 46 60 69 71 69 70 69 63 63 65 64 63 57 47 36 29 32 32 24 25 31 31 25 14
5 4 3 3 3 3 3 3 2 2 3 4 6 10 12 14 15 15 15 16 17 15 13 9 7 6 5 5 5 5 5 5 5 5 5 5 5 5 4 4 3 4 8 15 26 37 47 55 57 53 60 69 56 50 52 45 38 32 34 46 52 50 47 42 41 50 64 70 69 68 69 63 59 60 60 56 49 40 29 24 27 27 23 24 30 31 30 22
6 4 4 4 3 3 3 3 3 2 2 3 4 6 9 12 13 16 17 17 18 18 16 13 10 8 7 7 6 7 6 5 5 5 5 5 5 5 5 4 3 3 5 10 20 31 41 49 53 50 54 59 51 46 43 36 33 30 35 47 53 54 50 46 46 53 67 73 71 68 65 60 59 59 58 53 43 33 24 20 23 24 23 24 28 30 33 31
6 5 4 4 3 4 4 3 3 3 3 2 3 4 6 8 11 15 18 18 18 19 19 16 13 11 9 9 8 8 7 6 7 6 5 5 5 5 5 5 4 4 3 6 12 20 29 37 44 45 47 51 48 45 39 33 30 29 34 40 47 55 53 50 51 55 61 67 68 68 64 59 60 61 57 53 41 29 21 18 20 22 23 23 25 28 33 35
7 6 5 4 4 4 4 4 4 3 3 3 3 3 3 5 8 12 17 19 19 19 21 20 16 13 11 10 9 9 8 8 7 7 6 6 5 5 5 6 5 5 3 4 6 11 17 25 34 38 42 46 45 46 40 32 28 27 29 31 41 53 56 52 51 54 58 62 66 67 66 60 59 59 56 52 41 30 22 19 19 20 23 23 21 26 33 36
7 6 5 4 4 4 4 4 4 4 4 4 5 5 4 4 5 9 15 19 20 19 19 21 20 17 13 12 11 10 9 9 9 8 8 7 6 5 5 5 6 6 5 4 3 5 10 17 26 32 38 41 41 41 37 29 25 25 26 27 37 48 55 54 51 54 58 63 66 66 67 63 59 59 56 53 44 35 27 22 20 19 22 22 19 23 33 37
7 6 5 4 4 4 4 4 4 4 4 5 7 7 7 7 6 7 12 17 21 20 19 21 23 21 17 14 12 11 10 10 10 9 9 8 7 7 6 5 5 6 6 5 4 3 4 9 17 24 29 32 33 34 31 27 24 25 26 27 32 41 52 56 53 54 54 59 66 67 68 66 62 60 57 56 51 43 35 30 26 20 20 21 17 21 30 37
6 6 4 4 3 3 3 4 4 4 5 6 7 8 9 9 8 8 10 16 20 21 19 19 23 24 21 17 14 13 11 11 10 10 10 9 8 8 7 6 5 5 6 6 5 5 4 4 9 14 19 21 24 27 27 25 24 26 28 27 28 34 47 55 53 53 50 53 64 67 68 68 64 58 58 61 60 53 43 39 36 25 19 20 16 19 29 36
5 4 4 3 3 3 2 2 3 3 5 6 7 8 8 9 9 9 10 13 19 21 20 19 22 25 25 22 18 15 13 11 11 11 10 10 9 8 8 7 6 5 5 6 6 6 5 4 4 6 10 12 15 21 23 22 22 25 27 27 27 31 41 51 53 53 49 51 63 68 66 67 63 57 59 64 66 60 51 47 46 35 23 21 18 19 30 37
5 4 3 3 2 2 2 2 2 2 4 6 7 7 8 9 10 10 10 11 16 21 21 19 22 26 27 25 21 18 15 13 11 11 10 10 10 10 9 8 7 6 6 6 6 7 7 6 5 3 4 6 7 11 16 17 18 21 24 26 28 30 36 46 52 54 51 49 57 63 62 62 62 57 57 64 71 69 61 56 51 42 29 23 21 20 27 36
5 3 2 2 2 2 2 2 1 1 2 3 5 7 8 9 10 11 11 11 14 19 22 20 21 25 28 27 24 21 18 15 13 11 11 11 10 10 10 9 8 7 7 6 6 6 7 7 6 5 3 4 4 5 8 11 13 17 21 24 28 31 33 42 52 54 52 49 48 52 55 57 58 55 51 58 72 75 73 71 60 50 40 27 23 21 23 33
4 3 2 2 2 2 1 1 1 1 2 2 3 5 7 9 10 11 12 12 13 18 22 22 21 25 29 30 27 24 21 17 14 12 11 10 10 11 10 10 9 8 8 7 6 6 7 8 7 6 5 4 3 3 4 6 9 13 17 21 27 32 32 39 53 56 54 50 46 44 47 51 53 53 49 48 63 72 75 80 72 61 49 33 27 24 19 27
3 2 2 2 2 2 2 1 2 1 2 2 2 3 7 11 12 13 14 14 14 18 23 25 24 25 28 31 30 27 23 20 16 13 12 11 10 11 10 10 10 9 8 8 8 7 6 7 8 8 7 5 4 3 3 4 5 7 12 17 23 31 32 37 52 59 56 53 48 42 41 46 50 51 48 42 56 72 74 79 77 66 49 31 29 30 20 19
2 2 2 2 2 2 2 2 1 2 2 3 4 6 10 14 17 18 17 17 17 19 25 27 26 26 28 31 33 30 26 22 18 15 13 11 11 10 10 10 10 9 9 8 8 8 7 7 7 8 9 8 6 4 3 3 3 4 8 14 20 29 33 35 48 59 59 56 51 43 38 42 45 45 45 43 55 74 78 77 75 69 55 35 28 32 28 20
2 2 2 2 2 2 2 2 2 2 4 5 6 9 13 19 22 23 20 20 20 21 26 29 26 26 28 31 34 33 29 25 21 17 14 12 11 11 10 10 10 10 9 9 8 8 8 7 7 7 7 8 7 6 5 3 3 3 4 10 17 25 31 33 41 54 59 57 53 46 39 37 38 39 43 46 52 69 81 79 74 71 67 54 35 31 35 29
2 2 2 2 2 2 2 2 2 2 4 6 8 11 16 21 25 26 24 22 22 22 26 28 27 25 27 31 34 34 33 28 23 20 16 14 12 11 10 10 9 9 9 9 9 8 9 8 8 8 6 7 7 7 6 4 3 3 3 6 12 21 29 30 35 46 54 56 54 50 42 36 34 34 39 40 40 54 72 79 79 76 75 71 49 32 34 32
2 2 2 2 2 2 2 2 2 3 4 6 9 11 15 19 22 24 23 21 22 23 25 27 26 24 27 30 33 34 35 32 27 23 19 16 14 12 11 10 9 9 9 9 9 9 9 9 9 9 7 6 6 7 7 6 4 3 3 4 7 16 24 26 29 39 47 52 55 52 45 39 33 32 33 31 28 37 56 73 83 81 78 80 62 39 35 35
2 2 2 2 2 2 2 2 3 3 4 6 8 9 12 15 16 17 18 17 19 22 24 25 24 22 25 28 30 32 34 34 31 26 22 18 15 14 12 11 10 9 9 8 8 8 8 9 9 9 9 7 6 6 7 8 7 4 4 3 5 10 18 22 24 32 41 48 53 51 47 41 35 34 31 28 26 26 42 67 81 80 80 83 69 47 41 41
2 2 2 2 2 2 2 3 4 3 4 6 8 8 8 10 10 11 13 14 14 18 20 23 23 20 20 23 26 29 30 33 33 30 26 21 18 16 13 12 11 10 9 8 8 8 8 8 9 8 9 8 7 7 6 8 8 7 5 4 4 5 12 19 21 26 35 42 47 47 47 43 38 38 32 29 28 23 39 68 79 79 82 85 72 52 47 46
2 2 2 2 2 3 3 3 4 4 5 6 8 8 7 8 8 9 14 16 16 16 16 18 20 19 18 18 22 25 25 28 32 32 30 25 21 17 15 13 12 11 10 9 8 8 8 8 8 8 8 8 8 8 7 7 8 9 9 6 5 3 6 12 17 22 28 34 41 42 44 45 43 43 37 32 31 31 49 71 77 80 85 89 79 58 51 51
2 2 2 3 3 3 3 4 4 5 5 5 8 8 7 7 9 13 19 22 21 19 15 14 16 19 19 16 17 20 23 24 26 29 31 29 25 20 17 15 13 12 10 10 9 9 8 8 7 7 7 8 8 8 8 7 7 9 10 8 6 4 4 6 10 16 22 28 37 40 39 44 48 46 40 34 31 34 49 62 70 78 83 92 90 71 62 58
2 2 2 3 3 3 4 4 5 5 5 5 7 9 8 8 12 18 22 25 27 25 18 14 14 16 18 17 15 16 20 22 22 23 27 29 28 24 20 16 14 13 12 11 10 9 9 8 8 7 7 7 7 8 8 8 8 8 9 9 9 7 4 4 5 9 16 22 30 36 37 42 49 48 41 36 33 37 50 61 68 71 73 86 93 80 70 64
2 3 3 3 3 3 4 4 4 5 5 5 7 9 9 12 17 22 26 29 32 30 23 18 16 15 16 16 15 14 16 19 20 21 22 25 26 26 24 20 17 14 13 12 11 10 10 9 8 7 7 7 7 7 8 8 9 8 7 8 10 10 7 5 4 4 8 14 21 30 34 39 46 47 42 37 35 43 58 68 69 68 66 75 87 83 74 72
3 3 3 3 3 3 4 4 4 5 5 5 7 9 10 17 23 27 30 33 36 35 27 22 20 16 15 15 15 14 13 15 18 19 20 21 22 23 24 23 20 16 14 13 12 11 10 10 9 8 7 7 7 7 7 8 9 9 8 7 9 11 10 7 6 4 4 7 13 21 29 36 42 44 41 36 38 47 62 71 69 69 66 67 80 85 82 85
3 3 3 3 3 3 4 4 4 5 5 5 7 9 13 22 27 30 33 35 38 39 33 27 23 19 15 15 14 13 12 13 15 17 18 19 18 19 21 22 22 19 16 14 14 12 11 11 10 9 9 8 7 7 6 7 8 9 9 8 8 10 11 10 8 6 4 3 6 12 19 28 35 39 38 36 41 50 63 72 71 71 69 68 78 81 79 84
2 3 4 5 4 4 4 4 5 4 5 6 8 12 19 27 31 31 34 39 40 41 38 33 27 21 17 15 14 12 12 13 15 16 17 17 17 16 17 19 19 18 17 15 14 13 13 12 11 10 10 9 8 7 6 6 7 9 9 8 8 8 9 10 9 8 6 4 4 6 11 17 24 32 37 36 40 49 62 73 75 74 71 70 79 79 73 73
3 5 8 8 5 4 4 4 4 5 6 7 11 19 26 30 35 35 38 43 44 43 42 39 33 28 22 17 14 13 14 16 18 18 17 16 15 14 14 14 15 15 16 15 14 14 13 12 12 11 11 10 9 7 7 7 6 7 8 9 9 8 8 9 9 10 9 5 5 6 6 9 12 20 30 37 40 47 61 74 77 76 70 68 76 79 73 69
5 8 12 11 7 5 4 4 5 6 10 14 20 28 34 37 39 42 46 49 48 47 47 44 40 35 29 22 18 16 17 20 21 19 19 17 15 14 13 13 12 12 13 14 14 14 13 12 13 13 12 11 11 9 8 7 7 7 7 8 9 9 8 9 10 12 12 9 8 8 7 7 7 9 19 32 40 46 59 73 77 75 71 68 73 78 76 71
6 11 16 19 17 10 5 4 5 7 13 24 31 35 41 46 46 48 53 54 54 56 55 52 47 42 37 31 26 23 22 23 24 22 20 19 17 16 14 13 12 11 11 12 12 13 12 12 12 13 12 11 11 11 9 8 7 7 7 8 8 9 9 9 10 13 14 12 11 12 11 9 8 8 10 20 34 44 55 69 77 77 73 69 71 77 81 76
8 14 21 26 26 22 14 6 5 10 19 28 35 38 44 51 55 57 59 59 61 66 66 62 57 51 45 40 35 32 29 27 27 26 24 22 19 18 16 14 12 11 11 10 11 12 11 11 12 11 11 11 10 10 10 9 8 7 7 7 8 9 9 9 10 12 15 15 14 15 16 14 11 10 8 10 21 34 47 61 73 77 72 70 71 75 81 80
10 18 26 29 28 28 25 16 8 10 20 30 36 41 46 53 61 66 65 63 66 72 75 73 68 62 57 51 45 40 37 34 32 30 29 27 24 21 18 17 15 14 13 12 11 11 11 10 11 10 9 10 10 9 9 10 9 7 7 7 7 8 9 10 10 11 14 16 15 14 16 15 11 9 10 10 12 21 35 51 66 74 71 68 70 71 76 80
12 21 30 31 29 27 27 27 20 13 16 28 38 43 46 51 61 69 70 67 67 72 77 78 75 71 68 64 60 53 48 44 40 36 32 29 27 25 22 19 18 17 16 15 13 14 14 12 11 10 9 9 9 9 9 9 9 8 7 7 7 7 8 9 10 10 11 14 16 15 15 15 11 9 10 12 11 12 20 37 53 61 60 60 68 70 70 76
14 23 31 33 32 28 24 26 28 22 17 21 32 40 44 48 55 66 73 73 72 75 79 81 80 79 76 72 68 63 57 53 49 45 40 33 28 26 23 19 18 19 17 16 15 15 16 16 15 14 11 9 9 9 8 8 9 9 8 7 7 7 7 8 9 10 10 12 15 16 15 14 11 10 10 11 13 12 12 22 33 41 49 57 68 72 69 72
14 24 30 33 34 32 26 22 23 27 24 20 22 29 37 42 48 58 67 74 80 84 86 87 87 86 84 79 74 68 63 59 53 47 44 38 30 28 26 20 18 19 18 18 19 18 18 18 19 17 15 13 11 9 8 8 8 9 9 8 8 7 7 8 9 10 10 12 14 16 15 14 12 11 11 10 12 13 12 15 20 34 56 70 74 77 74 71
13 24 29 32 34 34 31 24 19 22 26 26 24 24 28 33 38 45 53 61 73 82 86 89 91 90 88 85 80 74 69 64 57 49 43 39 34 33 33 30 27 24 22 21 22 20 19 19 18 17 16 15 13 10 9 8 8 8 9 9 8 8 7 7 8 9 10 12 13 15 16 16 15 13 11 10 11 13 14 14 16 30 60 80 78 75 73 68
12 23 29 30 31 34 34 29 21 19 21 24 27 27 26 27 29 34 38 44 53 64 74 82 85 85 84 82 79 76 72 66 62 56 49 44 41 41 41 39 36 33 28 26 23 21 19 18 18 18 15 14 13 12 10 9 8 8 9 9 9 9 8 8 8 9 12 15 14 15 17 16 15 15 14 12 11 13 15 17 17 21 41 63 68 61 56 55
9 19 27 26 25 30 36 33 26 22 21 20 22 25 27 28 28 28 30 32 36 43 51 61 67 70 72 74 75 75 73 69 66 63 54 48 45 45 44 42 40 37 34 31 27 25 22 19 18 18 15 12 12 12 11 9 8 9 9 10 10 10 8 9 10 9 13 18 17 16 17 14 11 14 17 14 11 13 16 19 20 20 23 33 42 43 40 43
7 11 18 20 18 23 34 37 31 26 24 23 22 21 22 25 28 29 29 30 32 33 37 45 50 54 59 63 66 70 72 71 71 69 61 53 48 46 45 44 42 39 36 33 29 27 26 23 19 17 15 12 10 11 12 11 10 9 9 11 12 12 10 10 12 13 16 21 20 17 18 17 12 12 17 18 14 11 13 17 19 21 22 22 25 30 31 34
8 8 9 12 12 17 31 40 35 30 27 26 25 23 21 20 21 25 27 30 32 33 35 40 44 49 53 55 58 63 68 71 72 72 69 63 58 54 52 50 47 42 38 35 31 27 26 25 21 18 16 13 10 10 10 11 11 10 10 12 13 14 13 12 15 17 18 22 22 18 19 21 16 12 15 21 21 14 11 14 16 17 20 22 23 25 26 28
8 8 7 8 8 11 26 38 38 33 30 28 27 27 25 21 19 19 20 24 27 30 33 37 40 43 46 47 49 54 60 65 68 70 70 67 64 60 55 51 48 41 36 34 32 28 25 24 22 19 17 15 13 11 9 9 11 11 11 13 15 17 18 16 19 22 22 26 26 18 19 26 23 18 16 19 24 22 13 11 15 16 17 21 23 25 25 24
7 8 8 9 8 7 15 29 37 37 34 31 31 31 29 26 22 19 17 17 19 22 28 31 33 36 38 40 43 47 52 55 57 58 58 57 57 55 51 47 43 38 33 31 30 27 25 23 21 20 18 17 16 14 11 10 10 10 10 12 14 17 21 22 26 30 31 36 35 23 20 27 28 26 25 22 25 27 19 12 13 16 18 19 21 23 24 23
6 7 8 9 9 8 8 15 27 37 39 37 37 36 33 31 28 23 20 18 16 16 19 21 23 26 29 32 34 37 40 42 42 40 39 39 39 39 39 37 35 31 28 26 26 25 24 22 20 20 20 20 19 18 16 13 11 10 11 11 11 13 18 22 28 35 37 42 47 40 33 31 29 32 35 32 31 32 26 16 12 14 16 17 19 21 23 24
6 7 7 8 9 10 9 9 15 25 32 34 34 31 28 29 32 31 26 22 19 17 15 14 15 16 16 18 20 22 23 23 23 22 21 22 23 23 24 24 25 25 24 24 24 23 22 21 20 20 20 21 21 20 19 17 15 13 11 11 11 10 13 16 22 30 36 40 48 52 48 39 32 38 49 49 45 43 37 24 14 12 14 14 16 19 21 24
7 7 7 8 8 9 10 10 10 13 17 18 18 17 15 18 26 33 33 28 22 20 18 16 15 14 12 12 12 12 13 12 12 12 12 12 12 12 13 14 16 18 19 21 22 22 21 21 20 20 21 22 22 23 23 22 20 17 15 13 12 11 11 12 15 21 28 33 41 51 54 46 38 48 66 71 65 59 52 38 22 13 13 13 13 15 18 22
8 8 8 8 8 9 10 10 10 10 11 11 10 10 11 14 22 33 38 34 28 24 22 19 18 16 15 15 14 14 14 13 13 13 12 12 11 10 10 10 10 11 12 14 16 18 19 19 19 19 19 19 21 22 24 24 23 21 19 16 15 13 12 12 12 15 19 24 32 41 46 44 42 49 67 80 80 74 68 57 38 21 15 14 13 13 15 18
Wind_Speed
20 20 21 22 22 22 22 22 22 22 21 20 20 19 19 19 20 20 21 22 23 22 22 21 19 17 17 17 17 18 20 20 21 23 23 22 22 23 23 22 21 20 19 18 18 19 18 18 16 15 14 13 12 11 9 8 7 6 5 5 3 3 4 6 6 5 5 6 6 6 7 9 9 7 6 7 8 8 6 5 4 6 7 8 10 8 7 8
20 20 21 22 23 23 23 23 23 23 23 22 22 21 21 20 20 20 20 22 23 24 24 23 22 20 19 18 18 18 19 21 21 22 23 23 23 22 22 22 23 22 21 20 20 21 20 19 18 17 16 14 13 12 11 9 8 6 6 5 5 4 5 7 7 5 4 5 6 7 7 9 10 8 6 6 6 6 5 4 3 4 6 6 9 9 8 9
20 20 21 22 23 24 25 25 25 25 24 24 23 23 22 22 21 20 20 21 23 24 25 25 24 23 21 21 20 19 19 20 21 22 22 23 24 23 22 22 23 24 23 22 22 21 19 18 18 17 16 15 14 13 12 10 8 7 6 6 6 5 6 8 8 5 3 5 4 5 7 8 9 9 8 6 5 4 4 4 3 4 4 4 7 9 9 10
21 20 20 21 23 24 25 26 26 26 26 26 25 25 24 24 23 22 21 21 22 24 25 25 25 25 24 23 22 21 21 20 21 22 22 23 24 24 23 22 22 23 24 23 21 20 18 18 17 16 15 15 14 13 12 12 10 9 8 8 7 6 7 8 9 6 4 4 3 4 8 8 8 9 9 7 5 4 4 4 4 4 4 3 4 8 10 10
22 21 20 20 21 23 25 26 27 27 28 27 27 27 26 26 25 24 23 22 21 23 24 25 25 25 25 24 24 23 23 22 22 22 22 23 23 24 24 23 22 22 23 23 22 20 19 19 18 16 14 14 14 14 14 13 12 10 9 9 9 8 8 8 9 8 5 3 2 4 7 9 9 10 9 8 6 6 5 4 4 4 4 4 3 6 10 9
23 22 21 20 21 22 23 25 27 28 28 29 29 28 28 28 27 26 25 23 23 23 23 25 25 25 25 25 25 25 24 24 23 22 22 23 24 24 24 24 23 22 22 24 23 22 22 21 20 17 16 16 16 16 15 14 13 11 10 9 9 9 9 9 9 8 5 3 2 4 7 8 10 10 8 7 6 6 6 5 4 3 4 6 4 4 9 9
24 23 22 21 21 21 22 24 26 27 29 30 30 30 30 30 29 28 26 25 24 24 23 24 25 25 25 26 25 25 25 24 24 23 23 23 24 24 24 25 25 24 23 24 24 24 24 24 22 21 19 18 19 18 16 15 14 12 11 10 9 9 9 9 8 8 6 3 2 3 6 7 10 10 8 7 6 5 6 6 5 4 3 6 6 4 7 9
25 24 23 22 21 21 22 23 25 26 28 29 30 31 32 32 31 30 29 27 26 25 25 24 25 25 26 26 25 25 25 24 24 24 24 24 24 24 24 25 26 26 25 24 25 26 26 26 25 24 23 22 23 21 18 17 16 13 12 10 10 10 10 9 8 7 6 4 2 3 5 7 8 8 8 8 6 5 6 6 5 5 3 6 8 5 6 8
27 26 25 24 22 22 22 23 24 25 27 29 30 31 32 33 33 32 30 29 28 27 26 25 25 25 26 26 26 25 25 24 24 25 25 25 24 24 24 25 26 27 27 26 26 27 27 27 26 26 25 26 26 23 21 20 17 14 12 12 11 10 10 10 9 7 6 6 4 4 5 6 7 7 8 8 7 5 5 7 6 5 4 6 8 7 5 6
28 27 26 25 24 22 22 23 24 25 26 27 29 31 32 34 34 33 32 31 30 29 28 27 26 26 26 26 26 25 25 24 24 25 26 26 26 25 25 26 26 27 28 28 27 28 29 29 29 27 28 29 27 24 22 20 17 14 13 13 12 11 11 11 10 9 8 7 6 7 7 6 7 7 8 8 7 6 5 7 7 5 4 5 8 8 6 5
29 28 27 26 25 23 22 23 24 25 25 26 28 30 32 34 35 34 33 32 31 30 29 28 27 27 26 26 26 25 25 25 24 24 25 26 26 26 26 26 26 28 29 30 31 31 31 31 30 29 28 28 26 24 22 20 18 16 15 14 13 12 12 12 12 12 11 10 8 7 7 8 8 9 9 9 8 8 7 7 7 6 5 5 7 7 8 6
29 28 27 26 25 24 23 23 24 24 25 25 26 28 30 32 33 34 33 32 32 32 31 30 29 28 28 27 27 26 26 25 24 24 24 25 25 26 27 27 27 28 29 32 32 31 31 30 29 29 28 28 26 25 23 21 18 17 16 16 15 14 14 14 14 13 13 12 10 8 8 9 9 10 10 10 10 9 8 8 8 7 6 5 6 7 8 7
28 27 26 25 25 25 25 24 24 25 24 25 26 27 28 29 31 32 32 32 32 32 33 32 30 30 29 29 28 27 26 25 24 24 24 25 25 26 27 28 28 28 29 31 31 30 30 30 30 30 29 29 28 26 24 21 19 17 17 17 17 17 16 16 16 15 14 13 12 11 10 10 10 10 10 11 10 9 8 8 8 8 6 5 6 8 9 8
27 27 26 25 25 25 26 26 26 25 25 25 26 27 28 28 28 29 31 32 31 32 33 33 32 31 31 30 29 28 27 26 25 24 24 25 25 25 27 28 29 29 29 29 28 28 29 30 31 31 31 31 28 26 25 22 19 18 18 18 19 18 18 19 19 17 17 15 13 13 12 11 11 11 12 11 11 10 9 8 8 8 7 6 6 9 9 9
27 25 25 25 25 25 26 27 27 27 27 27 28 28 29 28 28 28 29 31 31 31 32 33 33 32 32 32 31 30 29 27 26 25 24 25 25 25 26 27 28 29 30 29 28 28 29 30 31 32 32 31 28 27 26 23 20 19 19 20 20 20 20 22 22 20 19 17 15 15 14 14 13 13 14 13 12 12 11 9 9 9 8 7 7 9 10 9
26 24 24 25 25 26 26 27 28 28 28 29 30 31 31 30 29 28 28 30 31 31 32 32 33 33 33 33 32 31 30 29 27 26 25 25 25 25 25 25 26 28 29 28 27 27 29 30 31 33 33 31 30 29 28 25 23 22 21 21 20 21 22 23 23 21 20 19 17 17 17 17 16 14 15 15 14 14 13 11 11 10 9 8 8 9 11 11
25 24 23 24 25 25 26 27 28 28 29 31 32 33 33 33 32 30 29 29 30 31 32 32 33 34 34 33 33 32 32 31 30 28 27 26 25 24 25 25 26 26 27 27 28 27 28 29 31 31 32 32 31 30 30 29 26 24 23 22 21 22 24 24 23 22 21 19 18 18 18 18 17 15 15 16 15 14 13 12 12 11 10 9 9 10 12 13
25 23 23 24 24 24 24 26 27 28 30 32 33 34 35 34 33 32 31 30 31 31 33 33 33 34 34 34 34 33 32 32 31 30 29 27 26 25 25 25 25 25 25 26 27 28 28 28 29 30 31 31 31 31 32 31 29 27 26 24 22 23 24 25 24 23 22 20 19 19 19 19 19 18 16 17 16 15 13 12 11 11 10 10 10 10 12 13
24 23 22 23 23 22 22 24 26 27 30 32 34 35 35 34 34 33 32 32 32 32 33 33 33 34 35 34 34 33 33 33 32 32 31 29 28 27 26 25 25 25 25 25 25 27 28 27 27 28 28 29 29 30 32 32 32 31 29 26 24 24 25 26 25 24 22 21 19 19 20 21 21 20 18 18 17 17 15 13 12 12 12 11 10 9 11 12
24 23 22 23 22 21 21 22 24 26 29 32 33 34 34 33 33 33 33 32 32 32 33 34 33 34 34 35 34 34 34 34 33 32 32 31 29 28 27 26 25 25 25 24 24 26 27 27 25 25 26 28 29 30 32 33 34 33 32 30 27 25 26 26 26 25 23 22 21 21 22 22 22 21 20 18 18 18 18 16 15 14 13 13 12 10 10 11
25 23 23 22 21 21 21 21 23 25 28 30 31 31 30 30 30 31 32 32 32 32 33 34 34 34 34 34 35 34 34 34 33 33 33 32 31 29 28 27 27 26 25 24 25 26 26 26 25 26 28 29 30 31 32 33 34 34 34 32 30 27 26 27 27 26 25 23 23 22 21 21 21 22 20 18 18 19 20 19 17 15 14 14 13 12 10 10
26 25 24 22 21 21 21 21 22 24 26 27 28 28 27 26 27 29 31 31 31 31 32 33 34 34 34 34 34 35 35 34 33 33 33 32 32 31 30 29 28 27 26 25 24 25 25 25 26 29 30 30 30 31 31 32 33 34 35 34 32 30 28 29 29 27 26 24 23 22 21 21 21 21 19 18 20 22 21 20 18 16 15 14 14 13 13 13
27 27 27 25 22 22 21 21 22 23 24 24 25 24 23 23 24 26 28 29 29 30 31 32 34 34 33 33 34 35 35 35 33 33 33 33 32 32 31 30 29 29 27 26 24 24 24 25 27 29 30 30 30 31 32 32 32 33 35 36 35 32 31 31 30 29 28 26 24 23 22 22 21 20 20 21 21 22 22 21 19 17 16 15 14 14 14 15
28 29 29 27 24 23 22 22 22 23 23 22 21 21 21 21 22 23 25 26 27 28 29 31 32 32 32 32 33 34 35 35 34 33 32 32 32 32 32 31 31 30 28 27 26 26 25 26 28 28 29 30 31 31 32 32 32 32 33 35 35 35 34 33 31 30 29 28 27 25 24 24 23 22 22 22 20 20 21 20 19 17 15 15 15 14 13 12
30 30 29 28 26 24 24 23 23 23 22 21 19 19 19 19 20 21 22 24 25 26 28 30 31 30 30 30 31 33 34 34 34 33 32 32 33 33 33 32 32 31 29 28 28 28 28 28 29 29 28 28 29 31 31 31 32 32 32 33 35 36 36 35 33 31 31 30 30 28 26 25 23 23 23 21 19 19 18 19 19 17 16 17 16 16 13 11
31 31 30 28 26 25 25 24 24 23 22 20 18 18 18 18 19 19 20 21 22 24 26 28 29 28 28 29 30 31 32 34 35 34 33 32 32 33 33 33 32 31 30 29 29 28 29 30 30 29 28 28 28 29 30 31 31 31 30 31 33 36 38 37 35 33 33 32 31 29 27 25 23 23 23 21 19 18 16 18 20 18 17 18 18 18 15 13
32 31 30 28 26 25 24 24 24 23 21 18 17 17 16 16 17 17 18 19 20 22 24 26 27 27 28 29 30 31 32 34 34 35 34 32 32 32 33 33 33 32 31 30 30 29 29 30 30 30 29 29 28 27 28 29 30 29 29 30 32 35 38 40 38 36 34 33 31 30 28 25 25 25 24 22 21 19 19 22 22 19 18 20 21 19 17 16
32 31 29 27 24 23 23 23 22 21 19 17 16 16 15 15 15 15 16 17 18 20 22 24 26 26 28 29 30 31 32 32 33 35 35 34 32 32 33 33 33 33 32 31 31 31 31 31 31 31 30 29 28 27 27 28 29 29 31 32 33 35 37 40 41 39 36 34 32 31 28 27 28 28 26 25 23 22 24 26 25 23 22 22 23 21 19 17
31 30 28 26 23 21 21 21 20 19 17 15 14 15 14 14 14 14 14 15 16 19 21 22 24 25 26 28 29 30 31 32 33 33 34 34 33 33 33 33 34 34 33 33 33 32 33 32 31 31 30 29 29 29 29 28 29 31 34 34 34 35 35 37 40 40 39 36 34 31 29 29 31 30 28 26 25 24 25 26 26 26 26 25 26 26 23 20
31 29 26 24 21 20 19 18 17 15 13 13 13 13 12 13 14 14 13 14 16 18 20 22 23 24 25 27 29 30 30 31 32 32 33 33 33 33 33 33 33 33 33 34 35 34 33 33 32 31 30 29 29 30 30 29 29 32 34 35 34 34 35 35 37 39 40 38 35 32 31 31 32 31 30 28 26 25 26 26 26 27 27 28 28 29 27 23
30 28 26 24 21 19 17 15 13 11 10 10 11 11 11 12 14 13 12 13 16 17 19 21 21 23 24 26 28 29 30 30 31 31 32 32 32 33 34 33 33 33 33 34 35 34 33 33 33 32 31 30 30 32 32 30 31 33 34 34 35 35 35 35 36 37 39 38 36 35 33 33 35 33 31 29 27 27 27 27 27 27 27 28 28 27 27 25
30 28 26 23 21 19 16 12 10 7 7 8 9 9 9 11 13 12 11 13 16 17 17 19 21 22 24 25 26 28 29 29 30 31 31 31 31 32 33 34 33 33 33 34 34 34 34 34 33 33 33 32 31 33 33 31 33 34 33 33 35 36 36 37 37 38 37 35 36 37 37 37 37 35 32 31 29 29 29 28 28 27 26 27 26 26 25 23
30 28 26 24 21 18 14 10 6 4 5 5 6 7 7 9 10 11 12 13 15 16 16 18 20 21 22 24 25 26 27 27 27 28 28 29 29 30 31 32 32 32 32 33 33 34 34 34 34 34 34 34 33 33 33 33 34 35 35 34 35 36 37 38 38 38 35 33 35 38 39 39 39 37 35 33 31 30 30 29 28 27 26 27 26 27 26 24
30 28 26 24 21 16 12 8 4 3 2 3 4 5 5 7 9 10 11 13 15 16 16 17 18 19 20 21 23 24 24 24 24 24 25 25 26 26 27 28 29 30 32 33 33 33 33 34 34 34 34 34 35 35 33 33 35 36 36 35 35 35 36 37 37 36 34 31 33 37 39 41 41 39 37 35 33 32 31 31 29 27 27 27 28 29 29 27
28 25 25 24 21 17 12 7 4 3 2 1 3 4 4 6 8 10 12 14 15 16 17 17 17 17 18 20 21 21 20 20 21 21 22 23 23 24 25 26 27 29 31 32 33 33 33 34 34 34 34 35 35 36 35 34 35 37 37 36 36 35 35 36 37 36 33 31 33 36 38 40 41 39 39 38 36 34 33 32 31 28 27 28 28 30 31 29
25 23 23 24 23 20 14 8 5 4 3 3 4 5 5 6 7 9 12 15 17 17 17 17 18 18 18 19 19 19 19 19 19 20 20 21 22 22 23 23 25 27 28 30 32 33 32 33 34 34 34 35 35 36 36 36 37 37 37 38 37 36 36 37 37 36 34 33 34 37 38 39 40 39 40 40 39 36 35 34 33 30 29 29 29 30 30 28
24 22 23 24 24 22 17 10 5 4 4 4 4 4 5 6 7 8 11 15 18 18 17 17 18 18 19 19 19 20 20 20 20 20 20 20 21 22 22 22 23 24 25 27 28 30 30 30 32 33 34 34 35 36 37 38 38 38 39 39 38 38 38 38 38 38 37 36 37 39 39 39 40 40 40 40 40 39 37 37 36 33 31 30 30 30 29 27
23 21 22 24 24 22 19 13 8 4 3 4 4 4 5 6 7 9 11 14 17 17 17 17 17 18 18 19 19 20 20 20 20 20 20 20 21 22 22 22 22 23 23 24 25 26 27 28 29 31 32 33 34 35 36 38 39 39 40 39 39 41 41 40 40 40 39 39 40 40 40 40 41 40 40 39 40 40 39 39 38 35 33 32 31 31 30 28
22 21 21 23 24 23 19 15 11 6 3 5 5 5 6 6 7 9 10 13 15 16 17 17 17 17 17 18 18 19 19 19 19 19 19 19 20 21 22 22 22 22 22 23 24 24 25 25 27 28 30 31 33 34 36 37 39 40 40 41 41 42 42 42 42 41 41 41 41 41 41 42 42 41 40 39 39 40 40 40 39 37 35 34 33 32 31 28
22 20 20 22 23 23 20 16 13 8 3 4 6 6 6 6 7 9 10 12 13 14 15 16 16 16 16 16 16 16 17 18 18 18 18 18 18 19 20 20 20 20 21 21 22 23 24 24 25 26 28 29 31 33 35 36 37 39 40 42 43 43 42 43 43 43 43 42 42 42 42 43 43 41 41 40 39 39 39 40 40 37 36 36 35 33 30 27
22 19 19 20 21 22 21 19 16 11 5 1 3 6 7 7 8 9 11 12 13 14 15 16 16 16 16 15 15 15 15 16 16 17 17 17 17 17 17 18 19 19 19 20 21 22 23 23 24 25 27 28 30 32 33 35 36 37 38 41 42 43 44 44 44 45 45 44 43 42 43 43 43 42 41 41 40 39 38 38 38 37 36 37 36 33 30 27
22 19 18 19 20 20 20 19 18 15 9 4 0 3 6 7 8 10 12 13 14 15 15 15 16 16 16 16 15 16 16 16 16 16 16 17 17 16 16 17 17 18 19 20 20 21 21 22 23 25 26 27 29 31 32 33 34 35 37 39 41 43 44 45 45 45 45 46 45 43 43 43 44 43 42 42 41 40 39 38 37 37 37 38 37 34 31 28
22 18 17 17 18 19 18 18 18 17 14 9 3 2 4 6 7 9 11 13 15 16 16 17 17 16 16 16 17 17 17 18 17 17 17 18 18 17 16 16 17 18 19 20 21 21 22 22 23 24 25 26 28 30 31 33 33 34 35 37 39 41 44 45 45 45 46 46 46 45 45 45 45 45 44 43 42 42 41 39 38 38 39 39 38 36 34 31
21 17 15 16 17 17 16 16 16 15 16 15 11 4 1 5 7 9 11 12 14 16 17 17 18 18 18 18 18 19 19 19 19 18 18 18 18 18 17 17 17 18 20 21 22 23 23 24 24 24 25 26 28 29 31 32 34 34 35 36 38 40 42 44 46 47 47 47 47 47 47 47 47 45 45 44 43 43 42 42 41 40 40 40 40 39 36 34
22 18 14 14 16 16 14 13 13 14 13 14 15 12 8 3 3 6 9 11 12 14 15 16 17 17 18 18 19 20 21 21 20 19 18 18 18 18 18 17 17 18 19 21 22 24 25 26 26 27 27 27 28 28 29 30 32 34 35 36 37 39 41 43 45 47 48 48 48 48 48 48 48 47 46 45 44 44 43 43 42 42 41 41 41 40 38 36
22 20 17 15 14 15 14 11 10 12 12 11 13 13 13 10 6 3 3 6 9 11 13 14 15 15 16 17 18 20 22 22 21 21 20 20 20 20 20 19 19 19 20 21 23 24 26 27 28 29 29 29 29 28 28 29 30 32 34 35 36 38 40 42 45 47 48 48 48 49 49 48 49 49 48 46 45 45 45 43 43 42 42 42 42 41 40 39
20 20 19 17 15 14 13 10 9 10 10 10 10 11 11 12 10 8 6 3 2 5 9 11 13 14 14 15 16 18 20 21 21 21 21 21 21 21 21 21 21 21 21 22 23 24 26 27 28 29 30 30 30 30 29 30 30 31 32 33 35 37 39 41 44 46 48 48 49 50 50 48 49 50 50 48 47 46 46 45 43 43 43 43 43 43 42 41
18 18 18 18 17 15 12 10 9 9 9 9 9 9 9 9 9 9 8 7 5 2 2 5 8 10 12 13 14 15 17 19 19 19 19 20 20 20 21 21 21 22 22 23 24 25 26 27 28 29 30 31 32 32 32 31 31 31 32 33 34 36 38 41 43 45 47 47 48 50 50 49 48 49 50 50 48 47 47 47 46 44 44 45 45 45 44 43
16 17 17 16 16 16 14 11 10 10 10 10 9 9 9 8 7 8 7 7 6 5 4 2 0 2 4 6 8 9 10 12 13 13 13 14 15 16 18 19 21 22 23 24 25 26 27 28 29 29 30 31 32 33 33 33 32 32 32 32 33 34 36 39 42 44 46 47 47 48 49 50 49 49 48 49 49 48 48 49 49 47 46 46 46 47 46 46
15 15 15 15 15 15 14 12 10 10 10 10 11 10 10 8 7 6 6 5 5 5 5 5 5 4 4 4 3 4 4 5 6 6 7 9 10 12 13 15 17 20 22 23 24 25 27 29 30 31 32 33 33 33 33 34 34 34 33 33 32 32 34 36 39 42 45 47 48 48 49 50 50 49 47 47 48 48 47 49 50 50 48 48 47 48 48 48
14 14 14 13 13 13 13 13 11 10 9 10 11 11 11 10 7 6 5 4 3 3 3 3 4 4 5 5 5 4 4 3 3 2 3 4 5 7 9 10 12 14 17 20 22 23 25 27 28 30 32 33 33 34 34 35 35 35 35 35 34 33 33 35 37 40 43 46 48 49 49 50 51 49 47 46 47 47 47 48 50 51 50 50 49 49 49 49
13 13 13 12 11 12 12 11 11 10 10 10 11 11 11 10 8 7 5 4 3 2 2 1 1 2 2 3 3 3 2 1 0 1 2 3 4 5 6 7 9 11 12 14 17 20 22 24 25 26 28 29 30 32 34 35 36 37 37 36 35 35 35 35 36 37 39 42 46 48 50 51 51 51 50 48 47 48 47 47 49 50 51 51 51 50 49 50
Wind_Direction
300 296 293 291 290 288 287 286 284 283 283 282 282 282 281 279 275 271 268 267 265 261 258 253 246 240 236 234 231 229 229 229 228 226 226 227 228 227 226 225 220 212 210 207 201 201 203 203 204 207 207 205 208 212 208 200 189 170 155 145 154 181 145 124 111 99 108 119 123 132 140 146 146 136 135 143 147 153 153 147 130 111 105 103 97 88 93 117
300 296 291 288 287 285 284 282 281 280 279 278 277 277 277 276 275 271 268 266 265 263 260 256 251 244 238 235 233 231 229 228 228 227 226 225 226 227 224 222 220 215 211 207 203 202 203 203 203 206 209 208 209 212 210 206 197 178 161 150 148 159 146 129 117 101 114 128 125 127 132 143 149 147 146 147 143 148 144 125 111 103 102 106 106 101 101 117
303 297 292 287 284 282 281 279 278 277 276 275 274 273 272 272 271 270 267 264 263 263 261 258 254 249 243 237 234 232 230 228 228 228 226 224 224 226 225 221 219 217 213 209 208 207 206 207 207 207 208 208 210 211 210 208 201 187 172 158 152 156 151 135 124 108 114 132 128 125 128 136 148 151 149 149 137 131 129 118 108 92 87 99 114 110 109 122
307 301 294 288 283 280 278 277 276 274 273 273 272 271 269 268 267 267 265 263 260 260 260 259 256 253 248 241 236 233 231 229 228 228 226 223 223 224 225 222 219 217 215 212 210 209 206 206 208 209 208 209 211 211 211 208 202 194 182 168 160 162 161 147 134 130 134 130 125 135 136 133 140 146 145 150 146 134 131 125 123 110 89 82 117 117 113 128
310 305 299 291 285 280 277 275 274 273 271 271 270 269 268 267 265 263 262 260 258 257 258 258 257 254 251 245 239 234 231 230 229 228 226 224 222 222 223 222 220 217 215 211 206 203 202 203 206 205 203 209 212 211 211 208 203 198 190 178 169 168 170 159 143 143 160 162 154 164 153 141 142 149 149 154 157 146 138 129 135 139 122 107 124 126 117 129
312 308 303 296 289 283 278 275 273 271 270 269 269 268 267 266 264 262 260 258 256 255 254 255 256 255 253 249 243 237 232 230 230 229 227 224 222 221 221 221 220 217 214 211 205 200 198 201 203 201 196 204 211 209 211 209 204 199 193 186 178 174 174 167 154 150 164 195 229 193 171 155 152 156 156 159 164 154 144 139 144 159 149 124 121 133 120 127
313 309 305 300 293 286 280 276 273 271 269 267 267 267 266 266 264 261 259 256 254 252 251 251 253 253 253 251 247 241 235 230 229 229 227 225 222 220 219 219 219 217 214 210 206 201 199 199 199 197 194 201 209 205 206 208 203 197 193 191 186 180 177 174 168 163 163 180 243 207 185 169 159 160 160 160 166 160 146 139 144 155 160 131 125 136 124 126
314 310 306 301 296 289 282 278 274 271 269 267 266 266 265 265 264 262 259 257 253 251 249 247 249 251 251 251 250 245 239 232 229 228 227 226 223 220 218 218 218 217 215 211 208 204 202 200 198 197 194 201 209 204 201 206 202 195 192 194 192 185 180 177 176 177 176 178 208 223 193 174 165 163 159 157 159 160 145 134 141 148 154 139 134 137 126 130
315 311 307 302 296 291 285 280 276 273 269 267 266 265 265 264 263 262 260 257 254 251 247 245 244 246 248 248 249 248 243 235 230 227 226 226 223 220 218 217 216 216 214 212 210 208 206 205 202 199 197 204 210 205 202 205 202 196 195 198 196 190 183 177 174 175 179 180 194 220 209 185 177 173 164 160 156 155 144 133 138 142 139 145 142 140 128 130
315 312 308 302 297 292 286 282 278 275 272 269 267 265 264 263 262 261 260 258 255 251 247 244 241 242 244 245 246 246 244 239 233 229 226 225 223 220 219 217 215 215 214 212 211 209 208 208 206 204 203 209 212 210 208 208 205 201 201 202 199 194 186 177 171 171 177 182 193 214 227 215 190 180 173 167 160 151 140 130 133 136 136 149 148 145 136 127
315 312 308 303 299 293 287 283 280 277 275 272 269 266 264 263 262 261 260 258 256 252 248 244 240 239 240 242 243 243 243 240 236 232 228 225 222 220 219 218 215 215 214 212 211 211 211 210 209 209 209 213 217 216 216 214 210 207 207 206 201 198 190 180 174 176 182 186 193 207 229 223 192 183 180 172 164 154 144 130 128 133 135 149 150 148 146 138
314 311 307 303 299 294 289 284 281 279 277 274 271 269 266 263 261 260 259 258 256 253 249 245 240 238 237 238 239 239 240 240 237 234 231 227 223 220 218 218 216 215 216 215 214 213 213 212 212 213 213 216 218 219 221 220 215 211 210 208 203 199 192 185 180 181 185 187 192 199 219 223 199 191 188 176 168 159 150 134 126 128 133 149 151 150 153 146
312 309 306 302 298 294 290 285 282 280 277 274 272 270 268 264 261 258 257 256 255 252 250 246 241 237 236 236 236 236 237 237 236 234 232 228 225 221 218 217 216 216 217 219 218 216 215 213 213 213 215 218 218 220 223 222 217 212 211 208 204 200 193 190 186 183 185 186 191 197 211 223 210 198 195 185 173 163 153 137 128 128 134 154 154 153 159 155
310 308 305 301 296 293 290 286 283 280 276 273 270 268 267 265 262 258 255 254 253 251 248 246 242 237 235 234 234 234 234 234 234 233 231 229 226 223 219 216 216 216 217 218 217 217 218 216 214 213 215 218 218 218 221 221 217 212 210 208 205 202 196 193 190 186 186 185 188 196 204 216 214 202 199 194 180 167 158 144 132 130 134 152 162 161 165 161
310 307 304 299 295 292 289 286 284 280 275 270 267 265 264 264 262 258 254 252 250 249 247 244 242 237 235 234 233 232 232 232 231 230 230 229 226 225 222 218 216 217 217 217 215 215 216 217 217 216 217 218 217 217 219 219 216 212 210 208 205 203 200 197 193 189 188 186 189 197 199 206 211 205 197 195 186 173 167 156 140 135 135 149 167 166 163 162
310 307 303 299 295 292 289 286 284 280 274 269 265 263 261 260 260 258 254 251 248 247 246 243 240 237 234 233 231 230 230 229 228 226 225 227 226 225 224 220 218 218 218 217 215 214 214 215 216 217 218 218 218 217 217 217 215 213 212 208 204 204 203 201 196 192 190 189 193 200 200 202 207 205 196 194 191 181 175 167 150 141 139 147 166 168 163 163
310 307 303 299 296 293 289 286 283 279 274 269 265 262 259 257 257 256 254 251 246 244 244 241 238 236 233 231 230 229 229 228 227 224 222 223 223 223 223 221 218 217 217 216 214 214 214 214 215 216 217 218 218 218 218 217 215 213 212 209 205 205 206 204 200 195 192 193 197 203 204 204 206 205 196 193 194 187 180 176 160 147 144 149 163 170 169 170
312 310 305 301 298 295 291 287 284 280 275 271 266 263 260 257 256 254 253 250 246 242 241 240 237 234 232 231 229 228 228 227 225 224 221 219 219 219 219 221 219 217 216 215 213 213 213 213 213 214 214 215 216 216 217 217 215 214 213 210 205 206 207 205 202 198 194 196 200 204 207 208 208 208 200 193 195 191 183 180 170 154 149 156 165 172 174 176
315 314 310 306 303 299 293 288 284 280 275 271 267 264 262 258 255 253 252 249 245 241 239 239 236 233 231 229 228 227 227 226 225 223 221 218 217 216 215 217 219 218 216 214 212 212 212 212 212 212 213 213 213 214 216 216 215 214 212 210 206 206 208 207 204 201 197 197 201 206 211 212 211 211 207 200 198 196 186 182 182 170 160 162 167 173 175 178
319 318 315 312 309 303 297 291 285 280 276 272 269 266 264 260 256 252 250 248 244 240 238 238 235 232 230 227 226 226 226 225 224 222 221 218 216 215 213 213 215 216 216 213 211 210 212 211 210 209 211 212 211 211 213 214 214 213 211 210 207 206 209 207 205 202 198 198 201 206 211 213 212 212 212 206 200 198 192 187 189 183 174 170 170 173 172 175
323 322 319 317 314 307 302 295 287 281 277 274 271 268 266 262 257 251 247 245 242 238 236 236 235 232 228 225 224 224 225 224 223 222 220 218 216 214 212 211 212 214 214 213 210 209 210 209 207 208 209 209 208 209 211 212 213 212 211 210 207 206 209 208 206 203 200 199 202 204 209 213 213 213 213 206 199 199 198 194 193 188 184 180 175 169 163 163
327 325 322 322 318 310 304 297 289 283 280 277 275 272 269 263 256 251 246 242 241 237 234 235 235 232 228 224 222 222 223 224 223 222 220 218 216 214 211 210 210 211 211 211 210 209 209 208 207 209 210 209 208 208 209 211 211 211 210 209 208 207 209 210 206 204 201 201 203 204 206 212 214 213 211 205 202 201 200 199 197 195 191 187 181 171 162 161
329 326 324 323 319 310 303 296 290 286 282 279 277 274 270 262 254 249 244 240 238 236 233 233 234 232 228 224 221 220 221 222 223 222 220 217 216 214 211 209 208 209 210 208 207 208 208 208 209 211 211 210 209 208 209 210 210 210 210 210 208 207 210 211 206 203 202 201 203 203 204 209 212 212 210 208 207 206 204 203 202 202 198 191 185 181 175 169
330 327 324 322 317 309 302 295 289 286 283 279 276 271 265 259 252 246 242 238 236 234 232 231 232 231 228 225 222 220 219 220 222 222 220 217 215 213 211 209 207 207 208 207 206 205 205 207 210 211 211 210 210 209 209 210 210 210 210 211 209 208 211 213 208 204 203 202 203 203 202 206 210 210 212 213 213 212 209 208 208 208 205 197 186 186 189 178
329 326 323 320 315 308 301 294 288 285 283 279 275 268 261 255 249 245 240 236 234 232 230 229 229 228 226 224 222 220 218 219 220 222 221 217 215 213 212 210 208 207 206 205 206 206 205 207 210 212 211 211 210 210 210 210 210 210 210 211 211 211 212 215 212 207 206 204 203 202 202 204 208 211 215 216 216 216 212 211 212 212 211 204 192 188 189 181
330 327 323 319 314 306 299 293 288 285 283 279 272 266 260 253 247 242 237 234 231 229 228 227 226 224 221 219 219 218 217 217 218 220 221 219 217 214 212 211 209 208 206 205 205 206 207 209 211 212 212 212 211 210 211 211 211 210 209 210 212 213 213 217 216 211 209 207 204 203 202 202 206 210 214 215 216 216 211 211 214 214 214 209 201 196 188 180
331 328 325 321 315 306 297 291 287 285 283 278 270 264 259 251 244 240 235 232 228 225 225 224 221 219 217 216 215 214 215 215 215 218 220 219 218 216 213 212 210 208 206 205 205 205 207 210 211 213 214 214 213 211 211 212 211 211 211 211 212 214 214 217 218 215 213 211 207 204 202 200 202 207 210 211 211 208 204 207 208 205 208 209 205 200 190 183
334 331 328 324 317 307 298 291 288 286 284 277 268 262 256 246 239 235 232 229 224 220 219 219 217 215 214 213 212 212 213 213 213 215 217 219 219 217 215 213 211 210 207 206 206 205 206 208 210 213 215 215 214 212 212 212 210 211 212 212 213 214 215 216 218 217 216 213 210 206 202 199 201 205 208 209 208 204 203 206 205 199 200 201 197 195 191 187
338 334 331 327 319 309 301 295 291 288 283 274 265 259 252 241 232 227 228 225 218 214 214 215 213 210 210 210 210 211 211 212 212 212 213 217 219 219 218 216 214 212 210 209 208 206 206 208 210 213 215 215 214 213 213 211 208 210 213 213 214 216 217 217 218 218 217 215 212 209 203 200 203 205 208 209 208 205 204 207 208 206 205 200 193 190 189 185
341 338 334 330 324 316 309 303 298 291 282 271 261 254 247 235 224 223 226 221 213 209 207 209 209 206 205 206 208 210 209 210 211 211 211 213 216 218 220 219 217 215 213 213 212 210 209 209 210 212 213 213 213 214 214 210 208 211 214 214 215 217 219 220 220 219 218 217 214 211 206 205 205 206 208 209 208 206 205 206 208 211 212 209 200 190 183 179
344 342 339 335 331 326 321 314 306 297 280 266 257 249 239 226 218 219 220 215 210 208 204 204 205 204 204 204 206 207 207 208 208 209 209 210 212 215 218 220 220 218 217 216 216 215 213 211 210 212 212 212 212 214 214 210 208 212 214 214 215 217 219 221 221 221 219 216 214 212 208 208 208 208 209 210 208 206 205 206 208 211 213 215 210 194 181 178
349 347 344 342 341 338 332 323 315 301 277 263 251 241 230 218 214 215 214 211 209 206 202 201 202 203 204 204 203 204 204 205 206 207 207 207 208 211 214 217 219 220 220 219 218 218 216 214 212 212 212 212 212 214 213 210 210 213 214 214 215 217 218 221 222 222 220 214 214 214 211 210 211 209 209 210 209 207 204 205 208 209 209 212 212 200 190 184
353 352 351 350 349 346 340 334 327 309 279 262 242 229 220 211 211 211 210 210 208 203 200 201 202 203 205 204 202 201 202 202 204 205 205 205 206 208 210 213 216 219 220 220 220 219 219 218 216 214 214 214 214 215 213 211 211 213 214 214 216 217 219 222 224 225 222 214 213 215 214 213 213 210 209 210 210 207 204 204 205 207 208 209 208 202 198 194
358 358 359 358 357 355 353 352 357 350 313 269 222 208 205 202 203 205 205 206 206 202 199 200 200 202 204 204 202 201 200 199 199 201 202 202 204 205 207 209 211 215 218 220 220 220 219 219 218 217 216 215 216 217 214 212 212 213 214 214 216 218 220 223 226 228 226 218 215 216 216 216 215 211 208 209 210 207 204 204 205 205 208 211 211 208 204 202
3 4 6 7 9 8 4 10 33 38 26 96 170 177 185 192 196 200 199 201 204 202 199 199 198 198 200 203 203 201 200 199 200 200 200 201 202 203 205 205 207 212 216 218 219 220 219 219 219 219 219 218 218 218 216 214 213 213 214 214 215 217 219 222 226 228 227 223 220 219 218 219 218 213 208 208 208 206 204 204 204 204 207 210 213 212 208 206
7 10 14 17 19 17 12 16 45 57 64 107 145 163 172 179 189 195 194 197 202 202 200 199 197 195 196 199 202 200 199 201 202 203 204 203 202 203 204 203 206 209 213 216 219 220 220 219 219 219 219 220 219 219 217 215 214 213 214 215 214 215 218 221 223 225 224 222 222 221 220 220 221 217 211 208 207 205 203 204 204 204 206 209 212 214 208 204
11 17 23 24 22 20 16 15 33 64 81 109 136 155 161 162 177 192 193 196 200 202 202 202 201 200 199 200 202 201 201 202 203 204 206 206 206 206 204 203 204 207 210 213 217 219 219 219 219 218 218 219 219 219 218 217 215 213 213 214 214 214 216 219 221 223 223 222 222 222 221 221 222 220 215 210 208 206 204 204 205 205 207 210 212 215 211 204
16 23 29 27 24 21 18 14 15 45 99 117 126 148 159 158 168 186 195 199 202 203 204 206 207 207 205 205 206 206 205 207 208 207 208 209 210 211 210 207 205 207 208 211 214 215 216 218 218 217 217 217 217 218 218 217 215 213 212 213 213 213 215 217 220 222 223 222 223 224 223 223 224 223 220 216 211 207 205 205 205 206 209 212 213 216 215 210
20 28 31 29 25 22 20 16 11 15 88 132 136 148 162 165 169 181 193 202 207 208 209 210 212 212 213 212 212 213 212 213 215 215 215 214 213 214 215 212 209 209 210 211 213 214 215 216 217 216 216 216 216 216 217 217 216 214 212 212 212 213 214 215 218 222 224 224 225 225 225 226 226 225 224 221 216 211 208 206 207 208 212 216 216 217 217 214
23 29 31 29 26 23 23 21 16 13 35 132 151 160 167 172 173 179 191 200 208 213 214 216 217 218 220 220 219 219 219 220 221 222 221 219 216 215 216 214 211 209 211 213 215 215 215 216 217 217 215 215 216 216 216 217 217 215 213 212 212 212 213 214 217 220 223 225 226 226 227 228 228 227 227 226 222 217 212 209 209 211 213 216 216 216 215 214
25 28 31 30 25 22 22 23 22 19 16 61 153 168 175 180 179 181 188 194 202 211 217 220 221 221 224 226 225 224 223 222 221 220 220 217 214 212 213 214 212 210 210 212 215 217 218 217 219 219 216 215 216 215 216 217 217 216 215 214 213 212 213 214 216 218 221 224 226 226 228 230 231 230 229 230 228 224 219 214 211 210 210 212 213 212 212 213
25 29 30 28 24 20 20 22 24 25 24 20 211 185 184 190 192 190 191 193 197 203 209 215 220 222 224 225 225 225 224 221 217 214 214 213 211 210 212 214 215 213 211 211 213 217 219 219 220 222 220 218 218 217 216 217 218 218 217 216 214 214 214 214 215 217 221 224 226 226 227 229 231 232 231 231 231 229 226 221 216 210 207 209 210 210 210 212
25 30 31 28 23 17 17 20 23 28 32 29 15 225 204 205 206 205 203 201 201 202 203 208 213 218 221 222 221 221 221 221 219 215 213 213 213 215 216 218 219 218 216 214 214 215 218 219 220 222 223 221 220 219 218 217 218 218 218 217 216 215 215 215 216 217 220 223 225 227 228 228 229 231 231 231 231 231 231 228 224 217 211 210 212 213 213 212
22 27 31 28 21 13 14 17 19 26 33 34 33 30 248 226 221 220 218 214 212 211 208 209 211 214 217 219 220 220 219 220 222 221 217 214 213 214 215 218 221 222 221 220 218 217 219 220 221 222 224 223 221 221 220 218 218 218 218 217 217 216 216 216 217 217 219 222 224 226 229 229 229 230 231 231 231 231 232 231 230 226 220 216 215 216 216 215
21 21 23 22 15 10 10 13 15 21 30 35 36 36 30 5 248 236 233 229 226 223 220 217 216 216 218 219 220 221 221 220 221 222 219 215 213 213 213 215 218 221 223 222 221 221 221 222 223 223 225 226 225 223 222 221 220 219 219 217 217 217 216 217 217 218 220 222 223 225 228 230 231 231 232 232 232 232 232 232 232 231 229 225 221 219 218 216
20 19 19 17 11 8 8 9 10 15 21 29 34 37 37 36 30 8 274 249 240 235 231 228 225 223 222 222 223 222 223 222 221 222 221 220 219 219 219 219 219 219 221 222 222 222 222 223 224 225 227 229 229 227 225 224 222 221 220 219 218 217 216 217 218 219 221 223 224 225 226 229 231 232 232 233 233 232 232 231 231 232 232 230 228 224 221 217
19 18 19 20 15 9 10 8 6 8 11 16 26 33 37 38 38 38 35 21 276 246 240 236 234 232 231 229 226 223 222 222 222 222 223 225 226 227 227 227 225 223 222 222 223 224 224 224 225 226 228 229 231 230 229 227 226 224 222 221 220 218 218 217 218 220 222 224 225 225 226 228 230 232 234 234 234 233 232 231 231 231 232 231 230 229 225 220
15 15 16 21 21 17 13 8 2 1 1 3 12 22 29 32 36 39 41 46 49 40 257 243 241 241 241 237 230 223 221 222 223 224 226 228 230 232 233 233 232 230 228 225 224 225 227 227 227 228 229 229 230 230 230 230 229 228 226 224 222 220 219 218 219 220 222 225 226 227 228 229 230 232 234 235 235 234 233 232 231 230 230 231 231 230 229 225
7 10 11 16 20 20 18 11 2 356 353 353 358 6 10 13 21 28 33 40 48 57 63 68 170 227 233 230 226 222 220 223 227 228 228 228 229 229 231 232 233 233 232 230 228 227 228 230 230 230 231 231 231 231 231 232 231 231 229 228 226 224 222 220 220 221 222 224 226 228 229 230 230 232 235 237 237 237 234 232 231 231 230 230 230 231 231 230
355 3 5 7 12 16 18 17 10 357 347 343 344 346 347 347 349 358 11 23 34 45 58 66 75 87 96 114 138 161 178 196 206 208 210 212 213 216 219 223 227 230 231 232 231 230 230 231 232 232 232 232 232 232 232 232 233 233 232 231 230 229 227 225 223 223 223 225 226 227 229 230 231 232 235 238 239 240 238 234 232 231 230 229 229 230 231 231
346 354 357 359 3 6 11 16 15 7 354 342 336 333 328 322 315 315 324 340 6 24 42 57 69 82 88 96 108 120 133 151 170 182 198 205 205 209 210 211 216 222 226 230 232 234 235 236 235 234 234 233 233 234 234 233 233 234 234 233 232 232 231 230 229 227 225 225 227 228 229 230 231 232 235 238 240 241 241 238 233 231 231 230 229 228 229 231
341 347 350 352 356 358 360 5 8 9 5 357 351 346 337 324 306 290 287 292 302 333 354 8 40 70 83 93 107 118 120 125 167 271 278 271 259 247 236 224 218 219 222 226 229 233 237 240 239 238 236 235 233 234 235 235 235 235 235 235 235 234 233 233 233 232 230 228 227 228 230 231 232 232 233 235 238 241 242 242 238 233 231 230 229 228 227 228